TimeCDT,TemperatureF,Dew PointF,Humidity,Sea Level PressureIn,VisibilityMPH,Wind Direction,Wind SpeedMPH,Gust SpeedMPH,PrecipitationIn,Events,Conditions,WindDirDegrees,DateUTC
12:15 AM,68.0,66.2,94,30.09,7.0,Calm,Calm,-,N/A,,Clear,0,2013-04-17 05:15:00
12:35 AM,68.0,66.2,94,30.09,6.0,Calm,Calm,-,N/A,,Clear,0,2013-04-17 05:35:00
12:55 AM,68.0,66.2,94,30.08,6.0,Calm,Calm,-,N/A,,Clear,0,2013-04-17 05:55:00
1:15 AM,68.0,64.4,88,30.08,7.0,Calm,Calm,-,N/A,,Clear,0,2013-04-17 06:15:00
1:35 AM,68.0,66.2,94,30.08,7.0,Calm,Calm,-,N/A,,Clear,0,2013-04-17 06:35:00
1:55 AM,68.0,64.4,88,30.08,7.0,Calm,Calm,-,N/A,,Clear,0,2013-04-17 06:55:00
2:15 AM,68.0,64.4,88,30.08,7.0,Calm,Calm,-,N/A,,Clear,0,2013-04-17 07:15:00
2:35 AM,68.0,64.4,88,30.08,7.0,SSE,3.5,-,N/A,,Clear,150,2013-04-17 07:35:00
2:55 AM,68.0,64.4,88,30.07,7.0,Calm,Calm,-,N/A,,Clear,0,2013-04-17 07:55:00
3:15 AM,68.0,64.4,88,30.07,7.0,Calm,Calm,-,N/A,,Clear,0,2013-04-17 08:15:00
3:35 AM,66.2,64.4,94,30.07,6.0,Calm,Calm,-,N/A,,Clear,0,2013-04-17 08:35:00
3:55 AM,66.2,64.4,94,30.07,5.0,Calm,Calm,-,N/A,,Clear,0,2013-04-17 08:55:00
4:15 AM,66.2,64.4,94,30.07,5.0,Calm,Calm,-,N/A,,Clear,0,2013-04-17 09:15:00
4:35 AM,64.4,64.4,100,30.08,4.0,Calm,Calm,-,N/A,,Clear,0,2013-04-17 09:35:00
4:55 AM,64.4,62.6,94,30.08,4.0,Calm,Calm,-,N/A,,Clear,0,2013-04-17 09:55:00
5:15 AM,64.4,64.4,100,30.08,5.0,Calm,Calm,-,N/A,,Clear,0,2013-04-17 10:15:00
5:35 AM,66.2,64.4,94,30.09,5.0,Calm,Calm,-,N/A,,Clear,0,2013-04-17 10:35:00
5:55 AM,64.4,64.4,100,30.09,3.0,Calm,Calm,-,N/A,,Clear,0,2013-04-17 10:55:00
6:15 AM,64.4,64.4,100,30.10,3.0,Calm,Calm,-,N/A,,Clear,0,2013-04-17 11:15:00
6:35 AM,64.4,62.6,94,30.11,2.0,Calm,Calm,-,N/A,,Clear,0,2013-04-17 11:35:00
6:55 AM,64.4,64.4,100,30.12,3.0,Calm,Calm,-,N/A,,Clear,0,2013-04-17 11:55:00
7:15 AM,66.2,64.4,94,30.12,3.0,Calm,Calm,-,N/A,,Clear,0,2013-04-17 12:15:00
7:35 AM,66.2,66.2,100,30.13,4.0,Calm,Calm,-,N/A,,Clear,0,2013-04-17 12:35:00
7:55 AM,68.0,66.2,94,30.13,5.0,Calm,Calm,-,N/A,,Clear,0,2013-04-17 12:55:00
8:15 AM,69.8,66.2,88,30.13,5.0,SSE,3.5,-,N/A,,Clear,150,2013-04-17 13:15:00
8:35 AM,69.8,66.2,88,30.13,5.0,Calm,Calm,-,N/A,,Partly Cloudy,0,2013-04-17 13:35:00
9:15 AM,71.6,66.2,83,30.13,5.0,SSE,3.5,-,N/A,,Haze,160,2013-04-17 14:15:00
9:35 AM,71.6,66.2,83,30.12,6.0,SSE,4.6,-,N/A,,Haze,160,2013-04-17 14:35:00
9:55 AM,73.4,66.2,78,30.12,6.0,SE,3.5,-,N/A,,Haze,140,2013-04-17 14:55:00
10:35 AM,77.0,66.2,69,30.12,7.0,South,6.9,-,N/A,,Clear,190,2013-04-17 15:35:00
10:55 AM,77.0,66.2,69,30.11,7.0,SSW,11.5,17.3,N/A,,Clear,210,2013-04-17 15:55:00
11:15 AM,77.0,66.2,69,30.11,6.0,SSW,9.2,21.9,N/A,,Haze,200,2013-04-17 16:15:00
11:35 AM,78.8,66.2,65,30.10,7.0,South,8.1,-,N/A,,Scattered Clouds,180,2013-04-17 16:35:00
11:55 AM,80.6,66.2,61,30.09,8.0,SSW,6.9,20.7,N/A,,Scattered Clouds,210,2013-04-17 16:55:00
12:15 PM,80.6,66.2,61,30.08,7.0,South,5.8,18.4,N/A,,Mostly Cloudy,180,2013-04-17 17:15:00
12:35 PM,80.6,66.2,61,30.07,8.0,South,8.1,16.1,N/A,,Mostly Cloudy,180,2013-04-17 17:35:00
12:55 PM,80.6,64.4,58,30.06,8.0,SSW,9.2,23.0,N/A,,Scattered Clouds,200,2013-04-17 17:55:00
1:15 PM,82.4,64.4,54,30.06,7.0,South,9.2,-,N/A,,Mostly Cloudy,170,2013-04-17 18:15:00
1:35 PM,82.4,64.4,54,30.05,8.0,South,4.6,-,N/A,,Mostly Cloudy,180,2013-04-17 18:35:00
1:55 PM,82.4,64.4,54,30.04,8.0,SSW,11.5,20.7,N/A,,Scattered Clouds,210,2013-04-17 18:55:00
2:15 PM,82.4,64.4,54,30.03,7.0,SW,9.2,17.3,N/A,,Partly Cloudy,220,2013-04-17 19:15:00
2:35 PM,82.4,64.4,54,30.03,8.0,SSW,5.8,-,N/A,,Partly Cloudy,210,2013-04-17 19:35:00
2:55 PM,82.4,64.4,54,30.02,8.0,South,6.9,-,N/A,,Scattered Clouds,190,2013-04-17 19:55:00
3:35 PM,82.4,62.6,51,30.01,8.0,South,8.1,-,N/A,,Scattered Clouds,180,2013-04-17 20:35:00
3:55 PM,82.4,64.4,54,30.00,8.0,SW,9.2,-,N/A,,Partly Cloudy,220,2013-04-17 20:55:00
4:15 PM,82.4,62.6,51,29.99,8.0,South,5.8,-,N/A,,Partly Cloudy,180,2013-04-17 21:15:00
4:35 PM,82.4,64.4,54,29.98,8.0,SSW,4.6,-,N/A,,Partly Cloudy,200,2013-04-17 21:35:00
5:15 PM,82.4,62.6,51,29.97,8.0,SSW,8.1,-,N/A,,Clear,200,2013-04-17 22:15:00
5:35 PM,82.4,64.4,54,29.96,8.0,South,6.9,-,N/A,,Clear,180,2013-04-17 22:35:00
5:55 PM,82.4,64.4,54,29.96,8.0,South,4.6,-,N/A,,Partly Cloudy,180,2013-04-17 22:55:00
6:15 PM,80.6,64.4,58,29.95,8.0,South,4.6,-,N/A,,Scattered Clouds,190,2013-04-17 23:15:00
6:35 PM,77.0,68.0,74,29.96,7.0,SSE,5.8,-,0.01,,Scattered Clouds,160,2013-04-17 23:35:00
6:55 PM,78.8,66.2,65,29.96,8.0,South,5.8,-,0.01,,Scattered Clouds,170,2013-04-17 23:55:00
7:15 PM,77.0,66.2,69,29.95,7.0,SSE,6.9,-,N/A,,Scattered Clouds,160,2013-04-18 00:15:00
7:35 PM,77.0,66.2,69,29.95,8.0,SSE,3.5,-,N/A,,Partly Cloudy,160,2013-04-18 00:35:00
7:55 PM,75.2,66.2,73,29.94,10.0,SSE,3.5,-,N/A,,Clear,160,2013-04-18 00:55:00
8:15 PM,75.2,66.2,73,29.94,10.0,SE,3.5,-,N/A,,Clear,140,2013-04-18 01:15:00
8:35 PM,75.2,66.2,73,29.94,9.0,SSE,3.5,-,N/A,,Clear,150,2013-04-18 01:35:00
8:55 PM,73.4,66.2,78,29.94,9.0,SSE,3.5,-,N/A,,Clear,150,2013-04-18 01:55:00
9:15 PM,73.4,66.2,78,29.94,9.0,Calm,Calm,-,N/A,,Clear,0,2013-04-18 02:15:00
9:35 PM,73.4,66.2,78,29.95,10.0,SSE,4.6,-,N/A,,Clear,160,2013-04-18 02:35:00
9:55 PM,73.4,66.2,78,29.94,9.0,SSE,4.6,-,N/A,,Clear,150,2013-04-18 02:55:00
10:15 PM,73.4,66.2,78,29.94,9.0,SSE,5.8,-,N/A,,Clear,150,2013-04-18 03:15:00
10:35 PM,73.4,66.2,78,29.94,10.0,SSE,3.5,-,N/A,,Clear,160,2013-04-18 03:35:00
11:15 PM,73.4,66.2,78,29.93,9.0,SSE,4.6,-,N/A,,Clear,150,2013-04-18 04:15:00
11:35 PM,73.4,66.2,78,29.92,9.0,SSE,4.6,-,N/A,,Clear,160,2013-04-18 04:35:00
11:55 PM,73.4,64.4,73,29.92,8.0,South,4.6,-,N/A,,Clear,170,2013-04-18 04:55:00